Terminal Aerodrome Forecast
Issued by NWS

Home | Current Version | Previous Version | Text Only | Print | Product List | Glossary Off
Versions: 1 2 3 4 5 6 7 8 9 10 11 12 13 14 15 16 17 18 19 20 21 22

000
FTUS43 KBIS 282100 AAB
TAFJMS
TAF AMD
KJMS 282148Z 2822/2918 33017G25KT 6SM BR OVC005
     FM290100 33022G33KT 6SM BR OVC008
     FM290800 31014G19KT P6SM OVC010=

USA.gov is the U.S. government's official web portal to all federal, state and local government web resources and services.